Weather History for Lynchburg, VA

Change the Weather History Date:

Sunday, May 27, 2012

  Actual Average Record
Temperature  
Mean Temperature 74 °F 66 °F  
Max Temperature 86 °F 78 °F 95 °F (1936)
Min Temperature 62 °F 54 °F 40 °F (1925)
Degree Days  
Heating Degree Days 0 2  
Month to date heating degree days 34 114  
Since 1 July heating degree days 3516 4437  
Cooling Degree Days 9 3  
Month to date cooling degree days 92 49  
Year to date cooling degree days 121 67  
Growing Degree Days 24 (Base 50)    
Moisture  
Dew Point 63 °F    
Average Humidity 68    
Maximum Humidity 93    
Minimum Humidity 42    
Precipitation  
Precipitation 0.00 in 0.13 in 2.38 in (1968)
Month to date precipitation 1.89 3.20  
Year to date precipitation 14.94 16.16  
Snow  
Snow 0.00 in - - ()
Month to date snowfall 0.0  
Since 1 July snowfall 8.5  
Snow Depth 0.00 in    
Sea Level Pressure  
Sea Level Pressure 30.13 in    
Wind  
Wind Speed 2 mph (South)    
Max Wind Speed 9 mph    
Max Gust Speed 13 mph    
Visibility 10 miles    
Events      
T = Trace of Precipitation, MM = Missing Value Source: NWS Daily Summary

Daily Weather History Graph

Daily Weather History Graph

Search for Another Location

Airport:

Trip Planner

Search our weather history database for the weather conditions in past years. The results will help you decide how hot, cold, wet, or windy it might be!

Date:

Astronomy

May. 27, 2012 Rise Set
Actual Time 5:59 AM EDT 8:28 PM EDT
Civil Twilight 5:29 AM EDT 8:58 PM EDT
Nautical Twilight 4:52 AM EDT 9:36 PM EDT
Astronomical Twilight 4:11 AM EDT 10:17 PM EDT
Moon 11:58 AM EDT (5/27) 12:38 AM EDT (5/27)
Length of Visible Light 15h 29m
Length of Day
14h 28m
Waxing Crescent, 38% of the Moon is Illuminated
May 27
Waxing Crescent
May 28
First Quarter
Jun 4
Full
Jun 11
Last Quarter
Jun 19
New

Hourly Weather History & Observations

Time (EDT) Temp. Heat Index Dew Point Humidity Pressure Visibility Wind Dir Wind Speed Gust Speed Precip Events Conditions
12:54 AM 68.0 °F - 64.0 °F 87% 30.15 in 10.0 mi Calm Calm - N/A   Scattered Clouds
1:54 AM 66.9 °F - 64.0 °F 90% 30.15 in 10.0 mi Calm Calm - N/A   Clear
2:54 AM 66.0 °F - 64.0 °F 93% 30.14 in 10.0 mi Calm Calm - N/A   Clear
3:54 AM 64.4 °F - 62.6 °F 94% 30.16 in 10.0 mi Calm Calm - N/A   Clear
4:54 AM 64.0 °F - 62.1 °F 93% 30.14 in 8.0 mi Calm Calm - N/A   Clear
5:54 AM 62.1 °F - 61.0 °F 96% 30.16 in 10.0 mi Calm Calm - N/A   Clear
6:54 AM 64.9 °F - 63.0 °F 93% 30.16 in 10.0 mi Calm Calm - N/A   Clear
7:54 AM 69.1 °F - 64.0 °F 84% 30.17 in 10.0 mi SSW 4.6 mph - N/A   Clear
8:54 AM 72.0 °F - 64.9 °F 78% 30.18 in 10.0 mi South 6.9 mph - N/A   Clear
9:54 AM 75.9 °F - 62.1 °F 62% 30.17 in 10.0 mi South 5.8 mph - N/A   Clear
10:54 AM 78.1 °F - 64.0 °F 62% 30.16 in 10.0 mi SSW 5.8 mph - N/A   Clear
11:54 AM 81.0 °F 82.5 °F 64.0 °F 56% 30.16 in 10.0 mi Variable 5.8 mph - N/A   Scattered Clouds
12:54 PM 82.0 °F 83.0 °F 62.1 °F 51% 30.15 in 10.0 mi Calm Calm - N/A   Partly Cloudy
1:54 PM 82.0 °F 83.1 °F 63.0 °F 52% 30.14 in 10.0 mi East 4.6 mph - N/A   Mostly Cloudy
2:54 PM 86.0 °F 86.1 °F 61.0 °F 43% 30.12 in 10.0 mi Variable 4.6 mph - N/A   Partly Cloudy
3:54 PM 82.9 °F 83.3 °F 61.0 °F 47% 30.10 in 10.0 mi South 5.8 mph - N/A   Clear
4:54 PM 84.9 °F 85.0 °F 61.0 °F 44% 30.09 in 10.0 mi Calm Calm - N/A   Partly Cloudy
5:54 PM 84.0 °F 83.8 °F 59.0 °F 43% 30.09 in 10.0 mi SE 3.5 mph - N/A   Partly Cloudy
6:54 PM 82.0 °F 83.1 °F 63.0 °F 52% 30.08 in 10.0 mi South 5.8 mph - N/A   Clear
7:54 PM 75.9 °F - 64.9 °F 69% 30.08 in 10.0 mi SSW 3.5 mph - N/A   Clear
8:54 PM 72.0 °F - 64.9 °F 78% 30.10 in 10.0 mi Calm Calm - N/A   Clear
9:54 PM 68.0 °F - 64.0 °F 87% 30.10 in 10.0 mi Calm Calm - N/A   Clear
10:54 PM 66.0 °F - 64.0 °F 93% 30.12 in 10.0 mi Calm Calm - N/A   Clear
11:54 PM 66.9 °F - 63.0 °F 87% 30.12 in 10.0 mi Calm Calm - N/A   Clear